Location: Dover
(39.1580°N, 75.5250°W)
Time: 04:49:11
(UTC-05:00)

ISS - All Passes

Search period start: 20 January 2017 00:00
Search period end: 30 January 2017 00:00
Orbit: 399 x 410 km, 51.6° (Epoch: 20 January)

Date Brightness Start Highest point End Pass type
(mag) Time Alt. Az. Time Alt. Az. Time Alt. Az.
20 Jan - 00:13:40 10° NW 00:15:37 15° NNW 00:17:34 10° NNE night (unlit)
20 Jan - 03:28:31 10° NNW 03:30:47 17° NNE 03:33:04 10° ENE night (unlit)
20 Jan - 05:04:21 10° NW 05:07:37 80° SW 05:10:51 10° SE visible
20 Jan - 21:43:17 10° SW 21:46:29 57° SE 21:49:41 10° ENE night (unlit)
20 Jan - 23:20:39 10° WNW 23:23:11 20° NNW 23:25:42 10° NNE night (unlit)
21 Jan - 02:36:41 10° NNW 02:38:19 13° NNE 02:39:57 10° NE night (unlit)
21 Jan - 04:12:12 10° NW 04:15:24 51° NE 04:18:33 10° ESE visible
21 Jan - 05:49:36 10° W 05:51:34 15° SW 05:53:31 10° SSW visible
21 Jan - 20:51:33 10° SSW 20:54:23 27° SE 20:57:13 10° ENE night (unlit)
21 Jan - 22:27:50 10° W 22:30:48 31° NNW 22:33:45 10° NE night (unlit)
22 Jan - 00:07:11 10° NNW 00:08:05 11° N 00:08:58 10° N night (unlit)
22 Jan - 01:44:58 10° N 01:45:46 11° N 01:46:33 10° NNE night (unlit)
22 Jan - 03:20:10 10° NW 03:23:05 29° NNE 03:25:59 10° E night (unlit)
22 Jan - 04:56:39 10° WNW 04:59:31 29° SW 05:02:23 10° SSE visible
22 Jan - 20:00:30 10° SSE 20:02:20 14° SE 20:04:10 10° E night (unlit)
22 Jan - 21:35:17 10° WSW 21:38:29 55° NW 21:41:41 10° NE night (unlit)
22 Jan - 23:13:49 10° NW 23:15:32 13° NNW 23:17:14 10° NNE night (unlit)
23 Jan - 02:28:12 10° NNW 02:30:41 20° NNE 02:33:08 10° ENE night (unlit)
23 Jan - 04:04:11 10° WNW 04:07:24 61° SW 04:10:35 10° SE night (unlit)
23 Jan - 20:43:00 10° SW 20:46:14 75° SE 20:49:29 10° NE night (unlit)
23 Jan - 22:20:41 10° WNW 22:23:02 18° NNW 22:25:22 10° NNE night (unlit)
24 Jan - 01:36:18 10° NNW 01:38:11 14° NNE 01:40:03 10° NE night (unlit)
24 Jan - 03:11:56 10° NW 03:15:10 65° NE 03:18:24 10° ESE night (unlit)
24 Jan - 04:49:58 10° WSW 04:51:15 12° SW 04:52:30 10° SSW night (unlit)
24 Jan - 19:51:03 10° SSW 19:54:03 35° SE 19:57:05 10° ENE visible
24 Jan - 21:27:45 10° W 21:30:35 26° NNW 21:33:24 10° NNE night (unlit)
24 Jan - 23:07:26 10° NNW 23:07:56 10° N 23:08:26 10° N night (unlit)
25 Jan - 00:44:30 10° N 00:45:37 11° NNE 00:46:45 10° NNE night (unlit)
25 Jan - 02:19:49 10° NW 02:22:51 35° NNE 02:25:52 10° E night (unlit)
25 Jan - 03:56:33 10° WNW 03:59:11 23° SW 04:01:50 10° S night (unlit)
25 Jan - 18:59:39 10° S 19:01:57 18° SE 19:04:16 10° E visible
25 Jan - 20:35:04 10° WSW 20:38:12 44° NNW 20:41:21 10° NE night (unlit)
25 Jan - 22:13:52 10° NW 22:15:20 12° NNW 22:16:48 10° NNE night (unlit)
26 Jan - 01:27:47 10° NNW 01:30:26 22° NNE 01:33:04 10° E night (unlit)
26 Jan - 03:03:55 10° WNW 03:07:03 46° SW 03:10:10 10° SSE night (unlit)
26 Jan - 19:42:37 10° SW 19:45:53 85° NW 19:49:09 10° NE visible
26 Jan - 21:20:38 10° WNW 21:22:46 16° NNW 21:24:54 10° NNE night (unlit)
27 Jan - 00:35:49 10° NNW 00:37:56 16° NNE 00:40:02 10° ENE night (unlit)
27 Jan - 02:11:34 10° NW 02:14:49 83° NE 02:18:04 10° SE night (unlit)
27 Jan - 18:50:31 10° SSW 18:53:39 46° SE 18:56:48 10° ENE visible
27 Jan - 20:27:35 10° W 20:30:15 23° NNW 20:32:56 10° NNE visible
27 Jan - 23:43:55 10° NNW 23:45:21 12° NNE 23:46:46 10° NE night (unlit)
28 Jan - 01:19:22 10° NW 01:22:29 43° NNE 01:25:36 10° ESE night (unlit)
28 Jan - 02:56:25 10° W 02:58:44 18° SW 03:01:03 10° S night (unlit)
28 Jan - 17:58:50 10° S 18:01:28 23° SE 18:04:07 10° ENE visible
28 Jan - 19:34:45 10° W 19:37:48 36° NNW 19:40:52 10° NE visible
28 Jan - 21:13:50 10° NW 21:15:02 11° NNW 21:16:13 10° N night (unlit)
28 Jan - 22:52:16 10° N 22:52:42 10° N 22:53:09 10° NNE night (unlit)
29 Jan - 00:27:16 10° NNW 00:30:04 26° NNE 00:32:51 10° E night (unlit)
29 Jan - 02:03:34 10° WNW 02:06:35 36° SW 02:09:36 10° SSE night (unlit)
29 Jan - 17:08:09 10° SSE 17:09:22 12° SE 17:10:35 10° ESE daylight
29 Jan - 18:42:11 10° WSW 18:45:26 67° NW 18:48:41 10° NE visible
29 Jan - 20:20:28 10° NW 20:22:24 15° NNW 20:24:20 10° NNE visible
29 Jan - 23:35:14 10° NNW 23:37:33 18° NNE 23:39:51 10° ENE night (unlit)
